COSMOS 1275 DEB, 42164

Orbit data source: Space-Track

COSMOS 1275 DEB, 42164 is space debris in LEO originally from a launch on Thu, 04 Jun 1981 UTC launched from the Plesetsk Missile And Space Complex (PKMTR). Debris objects in space refer to the collection of defunct objects orbiting the Earth. Examples of debris include non-operational satellites, rocket bodies, and fragments generated from explosions, collisions, or faulty payload assembly.

Loading next visibility...
Identifier
42164, 1981-053SC
Orbit
LEO
Country
Flag of CISCIS
Related business
Manufacturer
Unknown
Mission
Spacecraft
Bus & Motor
Unknown
Mass
Unknown
Launch date (UTC)
1981-06-04 (44 years ago)
Launch vehicle
Unknown
Launch site
Plesetsk Missile And Space Complex (PKMTR)
Object type
Payload
Rocket body
Debris
Shape & HBR
Unknown shape, 0.1 m
Radar Cross Section
Small (<0.1 m²)

Expand to show TLE details & history
Last TLE update: 1 week ago

TLE from 1 week ago
0 COSMOS 1275 DEB
1 42164U 81053SC  25302.38301430  .00013846  00000-0  32351-2 0  9996
2 42164  82.9209 174.6220 0024979  29.1018 331.1568 14.54413073621966
Epoch: 2025-10-29T09:11Z
TLE epoch observation values (Epoch: 2025-10-29T09:11:32.435Z)
Latitude
-0.00002°
Longitude
-1.22009°
Altitude
698.776 km
Speed
7.515 km/s
True Right ascension
11h 38m 29s
True Declination
0° 00' 00"
Sunlit
Object was in daylight at epoch
Visualization orbit readout
Latitude
Unknown
Longitude
Unknown
Altitude
Unknown
Speed
Unknown
Apparent Right ascension
Unknown
Apparent Declination
Unknown
Sunlit
N/A
Visualization observer readout
Local Sidereal Time
07:55:24
Azimuth
Unknown
Elevation
Unknown
Doppler factor
Unknown
Orbital elements
Apogee altitude
726.013 km
Perigee altitude
690.611 km
Semi-major axis
7,086.449 km
Eccentricity
0.0025
Inclination
82.9209°
RAAN
174.622°
Arg. of periapsis
29.1018°
True anomaly
331.01834°
Mean anomaly
331.1568°
Eccentric anomaly
331.08761°
Mean motion
3.63831 °/min
Orbital period
98.95 mins
BSTAR
0.0032351
Loading maneuver chart data...
Computing Atmospheric mass density...
Loading historical data...
Loading historical data...
Loading historical data...
Loading historical data...
Loading historical data...
Loading historical data...
Loading historical data...

Documentation

Showing up to 5 results
|